View from above orbital plane
|
View from above satellite
|
Ground track
|
The orbit data is extracted from the following two-line orbital elements,
1 115U 60002D 21103.48319846 .00000114 00000-0 40581-4 0 9993
2 115 48.1660 271.3557 0034174 131.9607 228.4226 14.83741289257524
Epoch (UTC): | 13 April 2021 11:35:48 |
Eccentricity: | 0.0034174 |
inclination: | 48.1660° |
perigee height: | 593 km |
apogee height: | 641 km |
right ascension of ascending node: | 271.3557° |
argument of perigee: | 131.9607° |
revolutions per day: | 14.83741289 |
mean anomaly at epoch: | 228.4226° |
orbit number at epoch: | 25752 |
The dashed part of the orbit path shows where the satellite is in the earth's shadow,
|
|